TimeCDT,TemperatureF,Dew PointF,Humidity,Sea Level PressureIn,VisibilityMPH,Wind Direction,Wind SpeedMPH,Gust SpeedMPH,PrecipitationIn,Events,Conditions,WindDirDegrees,DateUTC
12:55 AM,56.3,53.6,91,29.89,10.0,Calm,Calm,-,N/A,,Partly Cloudy,0,2012-09-07 05:55:00
1:55 AM,55.4,53.8,94,29.89,10.0,Calm,Calm,-,N/A,,Mostly Cloudy,0,2012-09-07 06:55:00
2:55 AM,56.1,54.0,92,29.87,10.0,Calm,Calm,-,N/A,,Mostly Cloudy,0,2012-09-07 07:55:00
3:55 AM,57.2,54.7,91,29.87,10.0,Calm,Calm,-,N/A,,Mostly Cloudy,0,2012-09-07 08:55:00
4:55 AM,56.5,54.3,92,29.88,10.0,NW,3.5,-,N/A,,Overcast,320,2012-09-07 09:55:00
5:55 AM,59.7,54.5,83,29.88,10.0,NNE,3.5,-,N/A,,Partly Cloudy,30,2012-09-07 10:55:00
6:29 AM,59.0,55.4,88,29.91,10.0,NW,4.6,-,N/A,,Light Drizzle,310,2012-09-07 11:29:00
6:55 AM,59.4,56.3,90,29.90,10.0,NE,5.8,-,0.01,,Light Drizzle,40,2012-09-07 11:55:00
7:16 AM,59.0,57.2,94,29.91,10.0,NNE,8.1,-,N/A,,Overcast,20,2012-09-07 12:16:00
7:31 AM,59.0,57.2,94,29.90,10.0,NNE,5.8,-,N/A,,Light Drizzle,30,2012-09-07 12:31:00
7:49 AM,59.0,57.2,94,29.89,10.0,NNE,6.9,-,N/A,,Mostly Cloudy,30,2012-09-07 12:49:00
7:55 AM,59.0,57.2,94,29.90,10.0,NNE,5.8,-,N/A,,Overcast,30,2012-09-07 12:55:00
8:55 AM,60.8,57.2,88,29.90,10.0,NE,4.6,-,N/A,,Overcast,40,2012-09-07 13:55:00
9:27 AM,60.8,59.0,94,29.92,7.0,North,5.8,-,N/A,Rain,Light Rain Showers,360,2012-09-07 14:27:00
9:40 AM,60.8,59.0,94,29.91,10.0,NE,4.6,-,N/A,,Mostly Cloudy,50,2012-09-07 14:40:00
9:55 AM,60.8,59.0,94,29.94,10.0,NNW,6.9,-,N/A,,Overcast,340,2012-09-07 14:55:00
10:55 AM,60.8,57.2,88,29.94,10.0,North,5.8,-,N/A,,Overcast,360,2012-09-07 15:55:00
11:47 AM,60.8,55.4,82,29.93,10.0,NNE,6.9,-,N/A,Rain,Light Rain Showers,20,2012-09-07 16:47:00
11:55 AM,60.8,55.4,82,29.92,6.0,NNE,4.6,-,N/A,Rain,Light Rain,20,2012-09-07 16:55:00
12:22 PM,59.0,57.2,94,29.92,10.0,Calm,Calm,-,N/A,,Overcast,0,2012-09-07 17:22:00
12:55 PM,59.0,57.2,94,29.91,10.0,NNW,6.9,-,N/A,,Overcast,340,2012-09-07 17:55:00
1:55 PM,59.0,55.4,88,29.93,10.0,NW,5.8,-,N/A,,Overcast,310,2012-09-07 18:55:00
3:55 PM,64.4,55.4,73,29.90,10.0,NW,8.1,-,N/A,,Mostly Cloudy,310,2012-09-07 20:55:00
3:59 PM,64.4,55.4,73,29.90,10.0,WNW,8.1,-,N/A,,Scattered Clouds,300,2012-09-07 20:59:00
4:55 PM,64.4,55.4,73,29.89,10.0,WNW,8.1,-,N/A,,Mostly Cloudy,290,2012-09-07 21:55:00
5:55 PM,66.2,53.6,64,29.88,10.0,NW,8.1,-,N/A,,Scattered Clouds,320,2012-09-07 22:55:00
6:55 PM,64.4,48.2,56,29.88,10.0,NW,12.7,-,N/A,,Partly Cloudy,310,2012-09-07 23:55:00
7:55 PM,59.4,47.8,66,29.90,10.0,NW,8.1,-,N/A,,Mostly Cloudy,320,2012-09-08 00:55:00
8:55 PM,57.2,46.6,68,29.92,10.0,NW,8.1,-,N/A,,Clear,310,2012-09-08 01:55:00
9:55 PM,50.2,46.0,86,29.94,10.0,West,5.8,-,N/A,,Clear,280,2012-09-08 02:55:00
10:55 PM,45.7,43.7,93,29.95,10.0,WNW,6.9,-,N/A,,Clear,290,2012-09-08 03:55:00
11:55 PM,43.3,41.9,95,29.96,10.0,WNW,8.1,-,N/A,,Clear,290,2012-09-08 04:55:00